Regional Weather Roundup
Issued by NWS

Home | Current Version | Previous Version | Graphics & Text | Print | Product List | Glossary On
Versions: 1 2 3 4 5 6 7 8 9 10 11 12 13 14 15 16 17 18 19 20 21 22 23 24 25 26 27 28 29 30 31 32 33 34 35 36 37 38 39 40 41 42 43 44 45 46 47 48 49 50
474
ASUS43 KLSX 101857
RWRMO

WEATHER SUMMARY FOR MISSOURI
NATIONAL WEATHER SERVICE SPRINGFIELD MO
100 PM CST SAT DEC 10 2016

NOTE: "FAIR" INDICATES FEW OR NO CLOUDS BELOW 12,000 FEET WITH NO
       SIGNIFICANT WEATHER AND/OR OBSTRUCTIONS TO VISIBILITY.
       CURRENT SKY AND/OR WEATHER CONDITIONS ARE NOT AVAILABLE FOR
       CHILLICOTHE AND FARMINGTON.

MOZ001>031-035>038-043-044-053-054-102000-
...NORTHERN AND WESTERN MISSOURI...

CITY           SKY/WX    TMP DP  RH WIND       PRES   REMARKS
KANSAS CTY INT CLOUDY    33  17  51 SE12      30.26F WCI  24
LEE`S SUMMIT   CLOUDY    34  19  54 SE12      30.28F WCI  25
ST JOSEPH      CLOUDY    33  16  49 SE9       30.28F WCI  25
CHILLICOTHE      N/A     31  16  54 E9        30.33F WCI  23

$$
MOZ066>068-077>081-088>096-101>105-102000-
...SOUTHWEST MISSOURI...

CITY           SKY/WX    TMP DP  RH WIND       PRES   REMARKS
SPRINGFIELD    CLOUDY    37  19  48 SE14      30.30F WCI  28
JOPLIN         CLOUDY    42  14  32 S8        30.28F
BRANSON        CLOUDY    39  19  45 SE13      30.35F

$$
MOZ032>034-039>042-045>050-055>058-069>072-102000-
...CENTRAL MISSOURI...

CITY           SKY/WX    TMP DP  RH WIND       PRES   REMARKS
COLUMBIA       NOT AVBL
JEFFERSON CITY CLOUDY    33  16  49 E9        30.38F WCI  25
ROLLA          CLOUDY    32  18  56 SE10      30.35F WCI  24
SEDALIA        CLOUDY    37  17  44 SE10      30.33F WCI  30
WARRENSBURG    CLOUDY    36  21  55 S8        30.32F WCI  29

$$
MOZ051-052-059>065-102000-
...EAST CENTRAL MISSOURI...

CITY           SKY/WX    TMP DP  RH WIND       PRES   REMARKS
ST LOUIS INTL  CLOUDY    34  16  47 SE12      30.43F WCI  25

$$
MOZ072>076-082>087-097>100-106>115-102000-
...SOUTH CENTRAL AND SOUTHEAST MISSOURI...

CITY           SKY/WX    TMP DP  RH WIND       PRES   REMARKS
CAPE GIRARDEAU MOSUNNY   36  18  48 S8        30.51F WCI  30
POPLAR BLUFF   SUNNY     36  22  56 SE7       30.49F
WEST PLAINS    CLOUDY    32  17  54 SE13      30.40F WCI  22

$$



USA.gov is the U.S. government's official web portal to all federal, state and local government web resources and services.